Find Starlink 38349

NORAD ID: 100558 Int'l Des: 2026-200 Owner: SPXS Country: US Constellation: starlink operational

Current View

Loading 3D Globe...

About Starlink 38349

Starlink 38349 (NORAD 100558) is a starlink constellation satellite launched Sep 2, 2026 by SPXS of US. with a mass of 575.00 kg.

Upcoming Passes

Passes for default location (London). Set your location on the main map for personalized predictions.

Altitude History

Loading altitude history...

Two-Line Element Set

1 A0558U 26200AA 26262.93823772 .00187251 00000-0 10968-2 0 9997
2 A0558 69.9988 137.0384 0003783 272.8381 87.2386 15.77624336 2793
Epoch: Sep 19, 2026 • Age: 19 hours

Current Status

Altitude 357.6 km
Apogee / Perigee N/A
Velocity 7.69 km/s
Sub-Earth Point -63.45°S, 93.92°E
Launch Date Sep 2, 2026
Age 18 days
Type internet

Technical Details

Classification Payload
Mass 575.00 kg
Dry Mass 530.00 kg
Length 0.30 m
Span 29.00 m
Shape ? Box + pan
Manufacturer SPXS
Bus Type Starlink V2MO
Phase Status In Orbit
Owner/State SPXS/US

Most Searched